Location: Unspecified
(50.7693°N, 0.0000°E)
Time: 07:01:20
(UTC+00:00)

Transit 2A - Pass Details

Date: 22 August 2020
Orbit: 591 x 967 km, 66.7° (Epoch: 20 September)

Event Time Altitude Azimuth Distance (km) Brightness Sun altitude
Rises 00:54:28 0° 322° (NW) 3,667 10.0 -26.5°
Reaches altitude 10° 00:57:09 10° 326° (NW) 2,713 9.3 -26.4°
Maximum altitude 01:03:27 58° 45° (NE) 1,092 6.9 -26.2°
Enters shadow 01:08:20 16° 121° (ESE) 2,191 8.2 -25.9°
